Location: ???????
(56.2167°N, 38.0500°E)
Time: 13:54:48
(UTC+00:00)

PSLV R/B - Pass Details

Date: 19 May 2025
Orbit: 586 x 683 km, 97.9° (Epoch: 19 June)

Event Time Altitude Azimuth Distance (km) Brightness Sun altitude
Rises 21:00:45 0° 17° (NNE) 2,860 8.3 -13.7°
Reaches altitude 10° 21:02:58 10° 22° (NNE) 1,943 7.1 -13.7°
Maximum altitude 21:07:07 57° 101° (ESE) 702 3.7 -13.7°
Enters shadow 21:09:33 23° 173° (S) 1,274 4.5 -13.8°
